Weather History for KORD - December, 2013

Change the Weather History Date:

Friday, December 13, 2013

  Actual Average Record
Temperature  
Mean Temperature 23 °F 28 °F  
Max Temperature 32 °F 35 °F 67 °F (1975)
Min Temperature 13 °F 21 °F -13 °F (1903)
Degree Days  
Heating Degree Days 42 37  
Month to date heating degree days 534 452  
Since 1 July heating degree days 1817 1708  
Cooling Degree Days 0 0  
Month to date cooling degree days 0 0  
Year to date cooling degree days 933 843  
Moisture  
Dew Point 18 °F    
Average Humidity 75    
Maximum Humidity 88    
Minimum Humidity 62    
Precipitation  
Precipitation 0.01 in 0.08 in 1.14 in (1928)
Month to date precipitation 0.41 1.12  
Year to date precipitation 40.56 35.76  
Snow  
Snow 0.20 in 0.20 in 6.00 in (2000)
Month to date snowfall 4.2 2.9  
Since 1 July snowfall 5.1 4.3  
Snow Depth 2.00 in    
Sea Level Pressure  
Sea Level Pressure 30.15 in    
Wind  
Wind Speed 6 mph (East)    
Max Wind Speed 15 mph    
Max Gust Speed 20 mph    
Visibility 9 miles    
Events Snow    
T = Trace of Precipitation, MM = Missing Value Source: NWS Daily Summary

Daily Weather History Graph

Daily Weather History Graph

Search for Another Location

Airport or City:

Trip Planner

Search our weather history database for the weather conditions in past years. The results will help you decide how hot, cold, wet, or windy it might be!

Date:

Astronomy

Dec. 13, 2013 Rise Set
Actual Time 7:11 AM CST 4:20 PM CST
Civil Twilight 6:39 AM CST 4:52 PM CST
Nautical Twilight 6:04 AM CST 5:27 PM CST
Astronomical Twilight 5:30 AM CST 6:01 PM CST
Moon 2:05 PM CST (12/13) 3:31 AM CST (12/13)
Length of Visible Light 10h 12m
Length of Day
9h 09m
Waxing Gibbous, 88% of the Moon is Illuminated
Dec 13
Waxing Gibbous
Dec 17
Full
Dec 25
Last Quarter
Jan 1
New
Jan 7
First Quarter

Hourly Weather History & Observations

Time (CST) Temp. Windchill Dew Point Humidity Pressure Visibility Wind Dir Wind Speed Gust Speed Precip Events Conditions
12:51 AM 18.0 °F 9.8 °F 10.0 °F 71% 30.20 in 10.0 mi WSW 5.8 mph - N/A   Mostly Cloudy
1:51 AM 19.0 °F - 12.0 °F 74% 30.19 in 10.0 mi Calm Calm - N/A   Overcast
2:51 AM 19.0 °F 12.3 °F 12.0 °F 74% 30.19 in 10.0 mi SW 4.6 mph - N/A   Overcast
3:51 AM 19.0 °F - 12.9 °F 77% 30.18 in 10.0 mi Calm Calm - N/A   Overcast
4:51 AM 18.0 °F 12.7 °F 12.9 °F 81% 30.18 in 10.0 mi South 3.5 mph - N/A   Scattered Clouds
5:51 AM 17.1 °F - 10.9 °F 77% 30.18 in 10.0 mi Calm Calm - N/A   Mostly Cloudy
6:51 AM 16.0 °F 7.4 °F 10.9 °F 81% 30.20 in 10.0 mi South 5.8 mph - N/A   Scattered Clouds
7:51 AM 14.0 °F 6.5 °F 10.0 °F 84% 30.21 in 10.0 mi South 4.6 mph - N/A   Mostly Cloudy
8:51 AM 19.9 °F - 14.0 °F 78% 30.20 in 10.0 mi Calm Calm - N/A   Mostly Cloudy
9:51 AM 24.1 °F 19.7 °F 14.0 °F 65% 30.20 in 10.0 mi Variable 3.5 mph - N/A   Mostly Cloudy
10:51 AM 26.1 °F 19.4 °F 15.1 °F 63% 30.19 in 10.0 mi East 5.8 mph - N/A   Mostly Cloudy
11:51 AM 28.9 °F 22.8 °F 17.1 °F 61% 30.14 in 10.0 mi Variable 5.8 mph - N/A   Mostly Cloudy
12:51 PM 30.0 °F 24.1 °F 19.0 °F 64% 30.13 in 10.0 mi ENE 5.8 mph - N/A   Mostly Cloudy
1:51 PM 30.0 °F 22.4 °F 19.0 °F 64% 30.13 in 10.0 mi East 8.1 mph - N/A   Mostly Cloudy
2:51 PM 30.0 °F 21.1 °F 19.9 °F 66% 30.13 in 10.0 mi ENE 10.4 mph - N/A   Overcast
3:51 PM 30.0 °F 21.1 °F 21.9 °F 72% 30.12 in 10.0 mi ENE 10.4 mph - N/A   Overcast
4:51 PM 30.0 °F 21.7 °F 23.0 °F 75% 30.13 in 10.0 mi ENE 9.2 mph - N/A   Overcast
5:51 PM 30.9 °F 22.8 °F 24.1 °F 76% 30.14 in 10.0 mi East 9.2 mph - N/A   Overcast
6:51 PM 30.9 °F 22.8 °F 24.1 °F 76% 30.14 in 10.0 mi East 9.2 mph - N/A   Overcast
7:51 PM 30.9 °F 21.7 °F 21.0 °F 67% 30.14 in 10.0 mi East 11.5 mph - N/A   Overcast
8:51 PM 32.0 °F 24.8 °F 21.9 °F 66% 30.13 in 10.0 mi ENE 8.1 mph - N/A   Overcast
9:51 PM 30.9 °F 23.5 °F 21.9 °F 69% 30.13 in 10.0 mi East 8.1 mph - 0.00 in Snow Light Snow
10:43 PM 30.9 °F 23.5 °F 25.0 °F 79% 30.10 in 4.0 mi East 8.1 mph - 0.00 in Snow Light Snow
10:51 PM 30.9 °F 22.8 °F 25.0 °F 79% 30.12 in 4.0 mi East 9.2 mph - 0.00 in Snow Light Snow
11:37 PM 30.0 °F 21.7 °F 27.0 °F 88% 30.09 in 5.0 mi East 9.2 mph - 0.01 in Snow Light Snow
11:51 PM 30.0 °F 23.2 °F 27.0 °F 88% 30.12 in 6.0 mi East 6.9 mph - 0.01 in Snow Light Snow